"Pseudo-MPEC" for SCAX011

Created 2023 Mar 23 21:22:14 UT using Find_Orb

Click here for an explanation of pseudo-MPECs

 
 Astrometry: 
     SCAX011* C2023 03 139/dAyAstrometryeredacted;wkJKaj_S0`+`\6`,IvZPAOmZ81UL92
     SCAX011  C2023 03 137vR\!Xwk=+Uclick#6o`Mp'V#$jSys3f1hW.@:/x7ToB0M3here%L92
     SCAX011  C2023 03 13g:OgA,EforyPRxJS16dymLt-5LyjexplanationBuTo.3\Hc#jIHL92

Station data:
(L92) San Costantino  (N38.705391 E16.002110)  Italy.  Observer T. Scarmato.
   0.25-m Newtonian reflector + CCD.

Orbital elements:  SCAX011
   Perihelion 2023 May 12.01312 +/- 1249 TT =  0:18:53 (JD 2460076.51312)
Epoch 2023 Mar 14.0 TT = JDT 2460017.5   Earth MOID: 0.0209   Ve: 0.0569
M 279.90118443 +/- 80               (J2000 ecliptic)             AutoNEOCP
n   1.35730514 +/- 0.8              Peri.  200.00186 +/- 60
a   0.80788780 +/- 0.318            Node    58.45028 +/- 41
e   0.2135575 +/- 0.223             Incl.   11.14168 +/- 40
P   0.73/265.23d           H 15.77  G  0.15   U 12.7  SR
q 0.63535730 +/- 2.9    Q 0.98041830 +/- 88.9
From 3 observations 2023 Mar. 13 (40.3 min); mean residual 0".26
Residuals in arcseconds: 
230313 L92  .27+  .00     230313 L92  .52-  .01-    230313 L92  .25+  .01+    

Ephemerides (geocentric):
Date (UTC) HH   RA             Dec           delta  r     elong  mag " sig PA
---- --------  ------------   ------------  ------ ------ -----  --- --------
2023 03 23 21  01 52 10.537   +36 38 44.01  .35582 .77407  42.7 17.8 1411 142
2023 03 23 22  01 52 08.521   +36 38 10.20  .35570 .77389  42.7 17.8 1424 142
2023 03 23 23  01 52 06.491   +36 37 36.20  .35558 .77372  42.7 17.8 1436 142
2023 03 24 00  01 52 04.448   +36 37 01.99  .35546 .77355  42.6 17.8 1449 142
2023 03 24 01  01 52 02.392   +36 36 27.57  .35533 .77337  42.6 17.8 1461 142
2023 03 24 02  01 52 00.323   +36 35 52.95  .35521 .77320  42.5 17.8 1474 142
2023 03 24 03  01 51 58.241   +36 35 18.13  .35509 .77302  42.5 17.8 1487 142
2023 03 24 04  01 51 56.146   +36 34 43.11  .35497 .77285  42.4 17.8 1499 142
2023 03 24 05  01 51 54.038   +36 34 07.87  .35485 .77267  42.4 17.8 1512 142
2023 03 24 06  01 51 51.916   +36 33 32.43  .35473 .77250  42.3 17.8 1525 142
2023 03 24 07  01 51 49.782   +36 32 56.79  .35461 .77233  42.3 17.8 1538 142
2023 03 24 08  01 51 47.634   +36 32 20.94  .35449 .77215  42.3 17.8 1551 141
2023 03 24 09  01 51 45.473   +36 31 44.88  .35437 .77198  42.2 17.8 1564 141
2023 03 24 10  01 51 43.299   +36 31 08.61  .35425 .77180  42.2 17.8 1577 141
2023 03 24 11  01 51 41.112   +36 30 32.14  .35413 .77163  42.1 17.8 1590 141
2023 03 24 12  01 51 38.912   +36 29 55.46  .35401 .77145  42.1 17?? 1604 141
2023 03 24 13  01 51 36.699   +36 29 18.57  .35388 .77128  42.0 17?? 1617 141
2023 03 24 14  01 51 34.472   +36 28 41.47  .35376 .77111  42.0 17?? 1630 141
2023 03 24 15  01 51 32.233   +36 28 04.16  .35364 .77093  41.9 17?? 1644 141
2023 03 24 16  01 51 29.980   +36 27 26.64  .35352 .77076  41.9 17?? 1657 141
2023 03 24 17  01 51 27.714   +36 26 48.91  .35340 .77058  41.8 17?? 1671 141
2023 03 24 18  01 51 25.436   +36 26 10.97  .35328 .77041  41.8 17?? 1684 141
2023 03 24 19  01 51 23.144   +36 25 32.82  .35316 .77023  41.7 17?? 1698 141
2023 03 24 20  01 51 20.838   +36 24 54.46  .35304 .77006  41.7 17?? 1712 141
2023 03 24 21  01 51 18.520   +36 24 15.88  .35292 .76988  41.7 17?? 1725 141
2023 03 24 22  01 51 16.189   +36 23 37.09  .35280 .76971  41.6 17?? 1739 141
2023 03 24 23  01 51 13.844   +36 22 58.09  .35268 .76954  41.6 17?? 1753 141
2023 03 25 00  01 51 11.487   +36 22 18.88  .35256 .76936  41.5 17?? 1767 141
2023 03 25 01  01 51 09.116   +36 21 39.45  .35244 .76919  41.5 17?? 1781 141
2023 03 25 02  01 51 06.732   +36 20 59.81  .35232 .76901  41.4 17?? 1795 141
2023 03 25 03  01 51 04.335   +36 20 19.95  .35220 .76884  41.4 17?? 1809 141
2023 03 25 04  01 51 01.925   +36 19 39.88  .35209 .76866  41.3 17?? 1824 141
2023 03 25 05  01 50 59.502   +36 18 59.59  .35197 .76849  41.3 17?? 1838 141
2023 03 25 06  01 50 57.066   +36 18 19.09  .35185 .76832  41.2 17?? 1852 141
2023 03 25 07  01 50 54.616   +36 17 38.37  .35173 .76814  41.2 17?? 1867 141
2023 03 25 08  01 50 52.154   +36 16 57.43  .35161 .76797  41.1 17?? 1881 141
2023 03 25 09  01 50 49.678   +36 16 16.28  .35149 .76779  41.1 17?? 1896 141
2023 03 25 10  01 50 47.190   +36 15 34.91  .35137 .76762  41.0 17?? 1910 141
2023 03 25 11  01 50 44.688   +36 14 53.32  .35125 .76744  41.0 17?? 1925 140
2023 03 25 12  01 50 42.173   +36 14 11.52  .35113 .76727  40.9 17?? 1940 140
2023 03 25 13  01 50 39.645   +36 13 29.49  .35101 .76710  40.9 17?? 1954 140
2023 03 25 14  01 50 37.104   +36 12 47.25  .35089 .76692  40.9 17?? 1969 140
2023 03 25 15  01 50 34.550   +36 12 04.78  .35078 .76675  40.8 18?? 1984 140
2023 03 25 16  01 50 31.983   +36 11 22.10  .35066 .76657  40.8 18?? 1999 140
2023 03 25 17  01 50 29.403   +36 10 39.19  .35054 .76640  40.7 18?? 2014 140
2023 03 25 18  01 50 26.810   +36 09 56.07  .35042 .76622  40.7 18?? 2029 140
2023 03 25 19  01 50 24.203   +36 09 12.72  .35030 .76605  40.6 18?? 2044 140
2023 03 25 20  01 50 21.584   +36 08 29.15  .35019 .76588  40.6 18?? 2060 140